Change the Weather History Date:

Saturday, September 28, 2013

  Actual Average (KABI) Record (KABI)
Temperature  
Mean Temperature 70 °F 71 °F  
Max Temperature 78 °F 83 °F 102 °F (1953)
Min Temperature 63 °F 60 °F 40 °F (1996)
Degree Days  
Heating Degree Days 0 1  
Month to date heating degree days 9  
Since 1 July heating degree days 9  
Cooling Degree Days 6 7  
Month to date cooling degree days 313  
Year to date cooling degree days 2258  
Growing Degree Days 20 (Base 50)    
Moisture  
Dew Point 64 °F    
Average Humidity 82    
Maximum Humidity 93    
Minimum Humidity 72    
Precipitation  
Precipitation 0.83 in 0.07 in 2.64 in (1895)
Month to date precipitation 2.10  
Year to date precipitation 19.06  
Sea Level Pressure  
Sea Level Pressure 29.99 in    
Wind  
Wind Speed 12 mph (NE)    
Max Wind Speed 18 mph    
Max Gust Speed 28 mph    
Visibility 10 miles    
Events Rain , Thunderstorm    
T = Trace of Precipitation, MM = Missing Value Source: NWS Daily Summary

Daily Weather History Graph

Daily Weather History Graph

Search for Another Location

Airport or City:

Trip Planner

Search our weather history database for the weather conditions in past years. The results will help you decide how hot, cold, wet, or windy it might be!

Date:

Astronomy

Sep. 28, 2013 Rise Set
Actual Time 7:29 AM CDT 7:26 PM CDT
Civil Twilight 7:05 AM CDT 7:50 PM CDT
Nautical Twilight 6:37 AM CDT 8:18 PM CDT
Astronomical Twilight 6:08 AM CDT 8:47 PM CDT
Moon 1:37 AM CDT (9/28) 3:28 PM CDT (9/28)
Length of Visible Light 12h 44m
Length of Day
11h 56m
Waning Crescent, 36% of the Moon is Illuminated
Sep 28
Waning Crescent
Oct 4
New
Oct 11
First Quarter
Oct 18
Full
Oct 26
Last Quarter

Hourly Weather History & Observations

Time (CDT) Temp. Dew Point Humidity Pressure Visibility Wind Dir Wind Speed Gust Speed Precip Events Conditions
12:15 AM 77.2 °F 70.3 °F 79% 29.88 in 10.0 mi South 17.3 mph 23.0 mph N/A   Clear
12:35 AM 77.0 °F 70.7 °F 81% 29.88 in 10.0 mi South 13.8 mph - N/A   Clear
12:55 AM 76.5 °F 70.7 °F 82% 29.88 in 10.0 mi South 15.0 mph 20.7 mph N/A   Clear
1:15 AM 76.5 °F 70.5 °F 82% 29.88 in 10.0 mi South 13.8 mph 18.4 mph N/A   Clear
1:35 AM 76.1 °F 70.3 °F 82% 29.88 in 10.0 mi SSE 12.7 mph - N/A   Clear
1:55 AM 75.7 °F 70.3 °F 83% 29.88 in 10.0 mi SSE 12.7 mph - N/A   Clear
2:15 AM 75.4 °F 70.2 °F 84% 29.87 in 10.0 mi South 12.7 mph - N/A   Clear
2:35 AM 75.2 °F 70.0 °F 84% 29.88 in 10.0 mi SSE 12.7 mph - N/A   Clear
2:55 AM 75.2 °F 69.8 °F 83% 29.88 in 10.0 mi SSE 11.5 mph 17.3 mph N/A   Clear
3:15 AM 75.2 °F 69.8 °F 83% 29.87 in 10.0 mi South 12.7 mph - N/A   Clear
3:35 AM 74.8 °F 69.4 °F 83% 29.88 in 10.0 mi South 11.5 mph - N/A   Scattered Clouds
3:55 AM 75.2 °F 69.4 °F 82% 29.88 in 10.0 mi South 10.4 mph - N/A   Mostly Cloudy
4:15 AM 75.2 °F 69.3 °F 82% 29.88 in 10.0 mi South 10.4 mph 17.3 mph N/A   Mostly Cloudy
4:35 AM 75.2 °F 69.1 °F 81% 29.87 in 10.0 mi SSE 12.7 mph - N/A   Mostly Cloudy
4:55 AM 75.2 °F 69.3 °F 82% 29.88 in 10.0 mi SSE 8.1 mph - N/A   Mostly Cloudy
5:15 AM 75.2 °F 69.1 °F 81% 29.88 in 10.0 mi SSE 10.4 mph - N/A   Mostly Cloudy
5:35 AM 75.2 °F 69.1 °F 81% 29.89 in 10.0 mi SSE 8.1 mph - N/A   Mostly Cloudy
5:55 AM 75.2 °F 69.1 °F 81% 29.89 in 10.0 mi SSE 10.4 mph - N/A   Overcast
6:15 AM 75.2 °F 69.1 °F 81% 29.90 in 10.0 mi SSE 9.2 mph - N/A   Overcast
6:35 AM 75.4 °F 69.1 °F 81% 29.90 in 10.0 mi SSE 11.5 mph - N/A Thunderstorm Overcast
6:55 AM 75.2 °F 68.9 °F 81% 29.90 in 10.0 mi South 9.2 mph - N/A   Overcast
7:15 AM 75.2 °F 68.9 °F 81% 29.90 in 10.0 mi South 10.4 mph - N/A   Overcast
7:35 AM 74.8 °F 68.9 °F 82% 29.90 in 10.0 mi SSE 10.4 mph - N/A   Mostly Cloudy
7:55 AM 74.8 °F 68.9 °F 82% 29.93 in 10.0 mi South 8.1 mph - N/A   Mostly Cloudy
8:15 AM 75.4 °F 69.1 °F 81% 29.95 in 10.0 mi South 6.9 mph - N/A   Mostly Cloudy
8:35 AM 75.6 °F 69.1 °F 80% 29.96 in 10.0 mi SSW 4.6 mph - N/A   Overcast
8:55 AM 75.6 °F 69.3 °F 81% 29.97 in 10.0 mi Calm Calm - N/A   Overcast
9:15 AM 76.3 °F 69.4 °F 79% 29.96 in 10.0 mi SSE 6.9 mph - N/A   Overcast
9:35 AM 77.9 °F 69.3 °F 75% 29.97 in 10.0 mi South 8.1 mph - N/A   Overcast
9:55 AM 78.4 °F 69.3 °F 73% 29.98 in 10.0 mi South 8.1 mph - N/A   Overcast
10:15 AM 78.1 °F 68.4 °F 72% 30.00 in 10.0 mi North 15.0 mph 20.7 mph N/A   Overcast
10:35 AM 68.5 °F 61.7 °F 79% 30.01 in 10.0 mi North 17.3 mph 27.6 mph N/A   Overcast
10:55 AM 67.8 °F 61.9 °F 81% 30.03 in 10.0 mi North 15.0 mph 24.2 mph N/A   Overcast
11:15 AM 66.7 °F 62.8 °F 87% 30.03 in 7.0 mi North 17.3 mph - 0.01 in Rain Heavy Rain
11:35 AM 66.4 °F 63.5 °F 90% 30.03 in 7.0 mi North 17.3 mph 20.7 mph 0.03 in Rain Rain
11:55 AM 66.9 °F 63.9 °F 90% 30.03 in 10.0 mi North 15.0 mph 18.4 mph 0.03 in Rain Light Rain
12:15 PM 67.1 °F 64.2 °F 90% 30.04 in 10.0 mi North 11.5 mph 18.4 mph 0.01 in Rain Rain
12:35 PM 67.1 °F 64.0 °F 90% 30.05 in 10.0 mi North 16.1 mph - 0.01 in   Overcast
12:55 PM 67.1 °F 63.7 °F 89% 30.05 in 10.0 mi North 12.7 mph 19.6 mph 0.02 in Rain , Thunderstorm Heavy Thunderstorms and Rain
1:15 PM 66.2 °F 63.5 °F 91% 30.04 in 1.0 mi North 18.4 mph 21.9 mph 0.37 in Rain Heavy Rain
1:35 PM 65.7 °F 63.3 °F 92% 30.06 in 3.0 mi NW 13.8 mph 19.6 mph 0.50 in Rain Rain
1:55 PM 64.8 °F 62.8 °F 93% 30.03 in 3.0 mi NNE 5.8 mph - 0.77 in Rain Heavy Rain
2:15 PM 65.5 °F 63.3 °F 93% 30.03 in 10.0 mi NNW 5.8 mph - 0.01 in Rain , Thunderstorm Rain
2:35 PM 66.7 °F 64.6 °F 93% 30.01 in 10.0 mi North 15.0 mph 18.4 mph 0.01 in Rain Rain
2:55 PM 67.3 °F 64.0 °F 89% 30.00 in 10.0 mi North 16.1 mph 20.7 mph 0.01 in   Overcast
3:15 PM 67.3 °F 63.7 °F 88% 30.00 in 10.0 mi North 16.1 mph 21.9 mph N/A   Overcast
3:35 PM 66.4 °F 62.2 °F 86% 30.00 in 10.0 mi North 18.4 mph 23.0 mph N/A   Overcast
3:55 PM 65.7 °F 61.2 °F 85% 30.01 in 10.0 mi North 17.3 mph 21.9 mph N/A   Overcast
4:15 PM 64.8 °F 60.4 °F 86% 30.02 in 10.0 mi North 13.8 mph - N/A   Overcast
4:35 PM 64.4 °F 59.7 °F 85% 30.03 in 10.0 mi NNW 15.0 mph - N/A   Overcast
4:55 PM 63.5 °F 59.2 °F 86% 30.01 in 10.0 mi North 17.3 mph - N/A   Overcast
5:15 PM 64.0 °F 59.0 °F 84% 30.02 in 10.0 mi North 15.0 mph 21.9 mph N/A   Overcast
5:35 PM 64.2 °F 58.3 °F 81% 30.03 in 10.0 mi North 16.1 mph - N/A   Overcast
5:55 PM 64.2 °F 58.3 °F 81% 30.03 in 10.0 mi North 13.8 mph 18.4 mph N/A   Overcast
6:15 PM 63.9 °F 57.7 °F 80% 30.04 in 10.0 mi North 11.5 mph - N/A   Overcast
6:35 PM 64.4 °F 58.1 °F 80% 30.04 in 10.0 mi NNE 13.8 mph - N/A   Overcast
6:55 PM 64.4 °F 58.1 °F 80% 30.05 in 10.0 mi NNE 12.7 mph - N/A   Overcast
7:15 PM 64.0 °F 57.2 °F 78% 30.06 in 10.0 mi NNE 10.4 mph - N/A   Overcast
7:35 PM 63.9 °F 56.7 °F 77% 30.07 in 10.0 mi NNE 11.5 mph - N/A   Overcast
7:55 PM 63.5 °F 56.1 °F 77% 30.07 in 10.0 mi NNE 11.5 mph - N/A   Overcast
8:15 PM 63.5 °F 56.5 °F 78% 30.08 in 10.0 mi NNE 10.4 mph - N/A   Overcast
8:35 PM 63.5 °F 56.5 °F 78% 30.09 in 10.0 mi NNE 9.2 mph - N/A   Overcast
8:55 PM 63.5 °F 56.5 °F 78% 30.10 in 10.0 mi NNE 8.1 mph - N/A   Overcast
9:15 PM 63.5 °F 56.7 °F 78% 30.11 in 10.0 mi NNE 8.1 mph - N/A   Overcast
9:35 PM 63.5 °F 56.7 °F 78% 30.11 in 10.0 mi NNE 8.1 mph - N/A   Overcast
9:55 PM 63.7 °F 56.5 °F 77% 30.12 in 10.0 mi North 6.9 mph - N/A   Overcast
10:15 PM 63.7 °F 56.1 °F 76% 30.12 in 10.0 mi NNE 6.9 mph - N/A   Overcast
10:35 PM 63.9 °F 55.9 °F 75% 30.13 in 10.0 mi NNE 9.2 mph - N/A   Overcast
10:55 PM 63.9 °F 56.1 °F 76% 30.12 in 10.0 mi NNE 6.9 mph - N/A   Overcast
11:15 PM 63.9 °F 56.5 °F 77% 30.12 in 10.0 mi North 6.9 mph - N/A   Overcast
11:35 PM 63.9 °F 56.1 °F 76% 30.12 in 10.0 mi NNE 6.9 mph - N/A   Overcast
11:55 PM 64.2 °F 55.6 °F 73% 30.12 in 10.0 mi NNE 6.9 mph - N/A   Overcast